ONEWEB-0056, 45159

Orbit data source: Space-Track

ONEWEB-0056, 45159 is a payload satellite owned by One Web (UK) in LEO that was launched on Thu, 06 Feb 2020 UTC via a SOYUZ-2-1B launch vehicle from the Tyuratam Missile And Space Complex (TTMTR). Payload-class satellites include a variety of spacecraft equipped with specific instruments for various scientific and technological missions. These include communications satellites like Starlink; space stations such as the ISS; scientific satellites like the Hubble; Earth observation satellites from companies like Planet Labs, Umbra, and HawkEye 360; GPS; miniature CubeSats for education and research; and military/defense satellites.

Loading next visibility...
Identifier
45159, 2020-008AE
Orbit
LEO
Last TLE update
15 hours ago
Origin
Manufacturer
One Web
Mission
Operational Commercial Communications
Bus & Motor
ARROW, Unknown motor
Mass
148 kg wet, ~140 kg dry
Launch date (UTC)
2020-02-06 (5 years ago)
Launch vehicle
SOYUZ-2-1B
Launch site
Tyuratam Missile And Space Complex (TTMTR)
Object type
Payload
Rocket body
Debris
Shape & HBR
Trap Box + 2 Pan, 5 m
Radar Cross Section
2.957 m², Large (>1 m²)

Expand to show TLE details & history

TLE from 15 hours ago
0 ONEWEB-0056
1 45159U 20008AE  25188.69130645  .00000352  00000-0  97124-3 0  9998
2 45159  87.8822 104.9667 0001891  78.1871 281.9468 13.10373694263067
Epoch: 2025-07-07T16:35Z
TLE epoch observation values (Epoch: 2025-07-07T16:35:28.877Z)
Latitude
-0.00005°
Longitude
-69.80063°
Altitude
1,224.304 km
Speed
7.242 km/s
True Right ascension
06h 59m 52s
True Declination
0° 00' 00"
Sunlit
Object was in daylight at epoch
Visualization orbit readout
Latitude
-7.95748°
Longitude
-70.2166°
Altitude
1,225.84 km
Speed
7.241 km/s
Apparent Right ascension
07h 06m 05s
Apparent Declination
-22° 23' 47"
Sunlit
Object is in daylight
Visualization observer readout
Local Sidereal Time
19:18:13
Azimuth
9.253° NNE
Elevation
-72.292°
Doppler factor
1
Orbital elements
Apogee altitude
1,220.27 km
Perigee altitude
1,217.397 km
Semi-major axis
7,596.971 km
Eccentricity
0.00019
Inclination
87.8822°
RAAN
104.9667°
Arg. of periapsis
78.1871°
True anomaly
Unknown
Mean anomaly
281.9468°
Eccentric anomaly
Unknown
Mean motion
3.2778 °/min
Orbital period
109.83 mins
BSTAR
0.00097124
Loading maneuver chart data...
Loading SW <> Apogee altitude chart data...
Loading historical data...
Loading historical data...
Loading historical data...
Loading historical data...
Loading historical data...
Loading historical data...
Loading historical data...

ONEWEB-0056 Visibility forecast

Observer location: undefined°, undefined°

Span
Click to sort rows by Start time (UTC) header in descending order
Start Az.
Max El. time (UTC)
Max El. Az.
Max El.
End time (UTC)
End Az.
11 mins2025-07-08 07:51:42.040Z336.577° NNW2025-07-08 07:57:42.040Z277.772° WNW26.197°2025-07-08 08:02:42.040Z229.408° WSW
12 mins2025-07-08 18:21:42.040Z155.318° SSE2025-07-08 18:26:42.040Z96.892° ESE39.328°2025-07-08 18:33:42.040Z10.448° NNE
10 mins2025-07-08 20:12:42.040Z234.945° WSW2025-07-08 20:17:42.040Z285.616° WNW23.748°2025-07-08 20:22:42.040Z333.111° NNW
12 mins2025-07-09 05:51:42.040Z17.407° NNE2025-07-09 05:56:42.040Z73.312° E35.013°2025-07-09 06:03:42.040Z153.17° SSE
|